{"data":{"norad_id":53227,"epoch":"2026-05-25T02:36:59.365152Z","epoch_age_seconds":55735,"freshness":"FRESH","line1":"1 53227U 22084AQ  26145.10902043 -.00000055  00000+0  25475-6 0  9991","line2":"2 53227  97.4506 206.1561 0002127  94.7869 265.3601 15.05665373210881","mean_motion":15.05665373,"eccentricity":0.0002127,"inclination_deg":97.4506,"raan_deg":206.1561,"arg_perigee_deg":94.7869,"mean_anomaly_deg":265.3601,"bstar":2.5475e-7,"rev_number":21088,"period_min":95.638780423756,"perigee_km":547.99049855438,"apogee_km":550.93750001948,"semimajor_km":6927.6009992869,"source":"CELESTRAK","updated_at":"2026-05-25T13:38:17.357444Z"}}